Location: Navalespino
(40.5894°N, 4.2660°W)
Time: 05:29:54
(UTC+00:00)

SJ-6B - Pass Details

Date: 18 April 2024
Orbit: 489 x 550 km, 97.4° (Epoch: 22 May)

Event Time Altitude Azimuth Distance (km) Brightness Sun altitude
Rises 20:07:17 0° 186° (S) 2,708 6.1 -12.7°
Reaches altitude 10° 20:09:31 10° 195° (SSW) 1,825 5.3 -13.1°
Maximum altitude 20:13:11 36° 263° (W) 896 4.4 -13.7°
Drops below altitude 10° 20:16:53 10° 330° (NNW) 1,844 6.4 -14.3°
Sets 20:19:10 0° 339° (NNW) 2,742 7.2 -14.7°
